Wind_Speed
21 22 23 24 25 26 27 28 29 30 30 30 30 30 30 30 30 31 32 33 33 35 37 39 42 45 47 48 48 49 50 50 50 49 49 50 53 53 50 50 49 47 47 45 44 43 41 40 40 40 39 38 36 33 31 29 27 25 24 22 21 22 19 18 17 16 16 11 8 12 10 6 4 5 7 6 6 12 13 17 21 20 24 27 29 31 32 31
21 23 24 25 26 28 29 30 31 32 33 34 35 35 34 33 33 33 34 35 35 36 37 39 41 44 47 48 49 50 50 51 51 50 50 52 53 53 52 52 51 49 48 47 45 44 43 42 42 42 40 39 37 35 33 31 29 27 25 24 22 24 22 21 19 17 18 12 10 13 10 7 4 3 6 6 5 10 11 14 18 18 21 26 28 30 31 30
22 23 25 26 28 29 31 32 33 34 35 36 37 38 38 38 37 36 36 37 37 38 39 39 41 43 46 48 50 51 51 51 51 51 52 53 53 54 54 53 52 51 50 48 47 47 45 44 43 42 41 40 39 37 35 33 31 28 26 25 24 25 25 24 21 19 19 12 11 12 8 6 4 3 5 4 5 7 9 12 15 16 20 24 26 28 30 29
23 25 26 28 29 31 32 34 35 36 37 38 39 41 41 42 42 41 40 39 39 40 41 41 42 43 46 48 50 51 52 52 51 52 54 54 54 55 55 54 54 53 52 50 49 48 47 46 44 43 42 41 40 38 37 34 32 30 28 26 25 26 26 26 25 23 20 13 12 13 8 5 4 4 4 4 4 5 7 10 12 17 20 23 25 27 28 28
25 27 28 29 31 32 34 35 36 38 39 41 42 43 44 44 45 45 44 43 42 42 42 43 43 44 46 48 50 52 52 52 52 53 55 55 56 57 56 55 55 54 53 52 52 50 49 47 45 43 43 42 41 39 38 36 34 32 29 26 25 26 26 26 26 24 19 15 13 13 10 7 6 5 4 4 3 4 5 7 12 18 20 22 24 26 27 27
27 29 30 32 33 34 35 37 38 40 41 43 44 45 46 47 48 48 49 48 46 45 44 44 45 46 47 48 51 52 52 52 54 56 56 56 58 58 57 56 56 56 55 54 53 52 50 49 46 44 43 43 42 41 40 38 36 33 30 27 25 25 26 25 25 23 18 15 14 13 12 10 8 6 5 5 5 4 3 6 12 17 19 21 23 25 26 26
29 30 32 33 35 36 37 39 41 43 44 46 47 47 48 50 50 51 52 52 51 50 48 46 46 48 49 49 51 52 52 53 55 57 57 56 58 59 58 58 57 57 56 56 55 53 51 50 48 46 44 44 43 42 41 40 38 34 31 29 24 23 25 26 25 23 20 16 16 15 14 13 10 8 7 6 7 5 1 6 11 15 18 20 21 23 24 24
31 32 33 35 36 37 39 41 43 45 47 49 50 51 51 52 53 54 54 55 55 54 52 50 49 49 50 51 51 52 53 54 55 57 58 58 59 59 59 59 58 58 58 57 56 54 53 51 49 47 46 45 44 44 43 41 39 36 33 29 25 25 26 28 26 24 22 18 18 18 15 14 11 9 8 7 8 5 1 3 10 15 16 17 18 21 23 22
32 33 35 37 38 39 41 43 45 48 50 52 53 54 55 55 55 56 57 57 58 57 56 55 52 51 51 52 52 52 53 55 56 57 58 59 60 60 61 61 60 59 58 58 57 56 54 52 50 48 47 46 45 45 44 42 40 38 35 31 28 28 27 28 26 24 24 20 19 20 16 15 12 10 10 9 9 5 3 2 8 13 14 15 16 19 21 21
35 36 38 39 40 41 43 46 48 51 53 55 56 57 57 58 58 58 59 59 60 60 59 58 57 55 54 53 53 53 53 55 56 57 58 60 61 61 61 62 61 60 60 59 58 57 55 53 51 50 49 48 47 46 45 43 41 39 37 33 29 29 29 27 25 24 24 21 19 21 18 16 14 13 13 12 10 5 5 3 6 10 11 12 13 17 20 19
37 38 40 41 43 44 46 49 51 54 56 57 58 58 59 59 60 60 60 61 61 62 61 61 60 58 56 55 54 54 55 56 57 58 59 60 62 62 62 63 62 61 61 60 59 58 56 54 52 52 51 50 49 48 46 44 43 41 39 36 32 31 31 29 28 27 23 19 20 22 22 20 18 18 16 15 12 5 5 4 2 7 8 9 11 15 18 18
39 40 42 44 46 47 50 52 55 57 58 59 60 60 60 60 60 60 60 61 62 63 63 62 62 61 59 57 56 56 56 57 58 59 60 61 62 63 64 64 63 63 62 62 60 58 57 55 54 53 53 52 51 49 48 46 45 43 41 38 35 33 31 31 31 29 25 21 21 23 24 24 21 19 19 17 15 8 5 6 3 5 6 7 9 13 16 17
41 42 45 47 49 50 53 56 58 60 61 62 62 61 61 60 59 59 60 60 62 63 64 64 63 62 61 59 58 58 58 58 58 60 61 61 63 64 65 65 64 64 63 62 61 60 58 57 56 55 54 54 53 51 49 48 47 45 43 40 39 35 32 32 32 31 29 25 24 25 25 26 23 21 20 19 19 13 8 9 7 5 4 5 7 9 13 16
43 44 47 49 51 53 56 59 62 64 65 65 65 64 63 61 60 59 58 59 61 62 64 65 64 63 63 62 60 59 59 59 60 60 61 62 63 64 65 66 65 64 64 64 63 61 60 59 58 57 56 55 55 53 50 49 47 45 45 42 41 39 35 33 33 34 32 28 27 28 26 26 25 23 22 21 21 17 12 11 10 7 5 4 5 7 10 14
45 47 50 52 54 56 59 62 65 67 68 68 68 67 66 63 59 57 56 57 59 61 63 65 65 65 64 63 62 60 60 61 61 62 62 62 63 64 65 66 66 65 65 65 64 63 61 60 60 59 57 57 56 54 52 49 47 46 45 44 43 42 40 38 37 36 33 29 30 29 28 26 26 25 25 24 22 18 13 11 12 10 6 4 2 4 7 11
47 49 52 54 56 59 62 65 68 70 71 72 72 70 67 62 57 53 52 53 56 59 61 64 66 66 66 65 63 62 62 62 63 63 63 63 63 64 65 66 67 66 66 67 66 65 62 61 61 60 59 58 58 56 54 50 47 47 46 46 46 43 42 41 39 36 31 30 32 30 30 29 28 27 26 25 23 20 15 12 13 12 7 5 2 2 4 8
49 51 54 56 58 61 64 68 71 73 74 75 74 71 65 58 52 48 47 48 52 56 60 64 66 67 67 66 65 64 64 64 64 64 64 64 64 65 65 66 68 68 68 68 68 66 64 62 62 62 60 60 59 58 57 54 49 48 49 48 48 44 40 40 39 37 34 32 32 32 31 32 33 29 25 24 23 22 18 14 14 11 7 7 4 1 2 5
51 53 56 58 60 63 67 70 73 75 77 77 75 70 61 52 45 41 41 43 47 52 58 63 66 68 68 68 67 66 66 65 65 65 65 65 65 66 67 67 68 70 70 69 69 67 65 64 63 63 61 60 60 60 60 59 51 49 53 51 49 47 41 39 40 40 38 33 32 31 29 30 34 30 27 25 24 24 21 18 16 11 9 9 6 3 1 2
52 55 58 60 62 66 70 73 75 77 78 78 73 64 54 45 39 35 34 37 41 48 55 61 66 68 70 69 69 69 67 66 66 66 66 67 67 67 68 68 69 70 71 71 70 69 67 66 64 63 62 61 62 62 61 62 56 50 54 54 50 48 43 40 40 41 40 35 33 33 30 29 31 29 29 28 25 26 23 21 19 16 14 12 8 6 4 1
54 57 59 62 64 68 72 75 77 79 79 76 68 57 46 39 34 30 29 31 36 42 50 58 64 69 71 71 71 70 69 67 66 65 66 68 69 69 70 70 70 70 72 72 70 69 69 68 67 66 66 65 64 63 62 64 61 56 56 56 52 50 46 42 40 39 39 36 35 38 36 31 31 32 31 30 27 27 24 22 21 20 17 14 11 9 6 3
55 58 61 63 66 70 73 76 78 80 79 73 61 49 41 35 31 28 25 26 31 36 44 53 62 68 72 73 73 72 71 69 67 66 67 69 70 71 71 71 71 70 71 72 71 71 69 69 70 70 68 66 64 63 64 63 63 60 58 57 56 53 50 48 46 45 42 38 37 39 39 35 33 35 34 32 31 28 25 23 23 23 20 17 14 10 7 6
56 59 62 65 68 71 74 77 79 80 77 68 55 44 38 33 29 26 24 23 26 31 38 46 56 65 71 74 75 74 73 72 69 68 68 69 71 72 72 72 72 71 71 73 73 71 70 70 72 72 70 68 66 65 65 64 63 62 60 60 60 57 54 53 54 53 47 42 40 39 39 37 37 37 34 34 32 28 26 24 25 26 23 19 15 11 10 9
57 60 63 66 69 72 75 77 79 79 74 62 49 41 36 31 27 23 22 21 23 27 32 40 50 60 69 74 76 77 76 74 72 71 70 71 71 72 74 74 73 72 71 73 73 72 72 72 73 73 72 69 68 67 66 66 65 63 62 60 61 59 57 55 55 56 53 47 44 41 38 37 38 37 35 35 32 29 27 26 28 28 26 22 18 15 14 13
58 61 64 67 70 72 75 78 79 78 70 56 45 39 34 30 25 21 19 19 20 23 28 35 43 54 64 72 77 78 78 77 75 73 72 71 71 73 75 75 73 74 73 73 73 73 73 74 74 75 73 71 70 69 67 68 67 65 63 61 62 60 58 56 54 56 57 50 47 44 40 39 39 37 36 35 33 31 30 30 30 29 27 25 22 18 17 15
59 62 65 68 69 72 75 78 79 76 66 52 43 37 32 28 24 19 17 17 17 20 25 30 38 47 58 68 75 79 80 80 78 76 74 72 72 73 74 75 76 75 74 73 73 74 74 74 76 76 75 73 72 71 69 69 69 68 67 64 64 61 60 61 55 56 59 53 49 47 43 42 43 41 39 37 35 32 32 32 31 30 29 27 24 20 18 17
59 63 66 67 69 72 75 78 78 74 63 49 41 35 30 25 21 17 15 14 15 17 21 26 33 41 51 62 71 78 81 81 80 79 77 74 72 72 74 76 77 75 75 75 74 74 74 75 76 75 76 75 74 73 71 71 70 70 69 67 65 63 64 65 59 55 60 57 51 49 47 45 45 45 43 40 38 35 33 33 31 31 31 28 25 23 21 19
60 63 66 67 69 72 75 78 78 73 60 47 39 33 28 23 19 16 14 12 12 14 17 23 29 36 45 55 66 75 80 82 82 82 79 76 74 73 74 76 77 77 77 77 75 74 74 76 75 75 76 77 76 75 73 73 73 72 71 69 68 67 64 65 62 57 58 58 55 52 50 49 48 50 47 40 40 40 36 35 34 34 33 31 28 26 24 22
60 64 65 66 68 72 75 78 78 71 58 45 37 31 26 22 18 15 13 11 10 11 14 19 24 31 39 49 60 71 78 82 83 83 81 78 76 74 74 76 77 78 78 78 78 76 76 77 77 77 77 77 78 77 75 74 74 73 73 71 71 71 66 64 64 61 58 58 58 54 52 51 50 52 49 42 42 43 40 37 36 36 35 33 30 28 27 26
61 64 65 65 68 71 75 78 77 70 56 44 36 30 25 21 17 15 13 11 9 9 11 15 20 27 34 43 54 65 74 80 83 84 83 81 78 76 75 75 76 78 79 80 80 78 77 77 77 78 79 79 79 78 77 76 75 74 74 73 72 73 70 66 64 64 61 59 59 57 53 52 52 53 51 44 44 46 44 41 40 38 37 35 32 29 28 28
61 64 64 65 68 71 75 78 77 69 55 42 35 29 24 20 17 15 13 12 10 8 9 12 17 22 29 38 48 58 69 78 82 85 85 84 81 78 75 74 76 79 80 81 79 77 77 75 76 78 80 80 79 78 79 78 77 76 75 75 74 73 72 69 65 64 64 62 61 59 56 55 55 55 53 47 45 48 47 44 42 40 38 36 33 31 30 29
61 63 64 65 67 70 74 78 77 69 54 41 34 28 24 20 16 14 13 12 11 10 10 10 13 19 26 33 42 52 63 73 80 85 86 86 83 80 78 77 78 80 81 80 78 78 78 77 77 78 79 79 79 80 80 78 78 77 76 76 75 73 72 70 67 64 65 66 63 61 59 57 56 56 54 49 46 48 48 46 44 41 39 38 35 34 34 32
61 63 63 64 67 70 74 77 77 69 54 41 33 28 24 20 17 14 12 12 12 12 12 12 12 15 21 29 38 47 57 67 77 83 86 87 86 83 81 80 79 80 81 81 80 80 81 79 78 77 78 79 81 82 80 79 79 78 77 77 76 75 73 71 69 67 66 67 65 63 62 61 58 56 55 52 48 48 49 47 46 44 41 40 38 37 37 35
60 62 62 64 66 69 73 76 77 70 55 41 32 27 24 21 17 14 13 13 13 14 14 15 16 16 19 25 33 42 51 62 72 80 85 87 88 86 84 81 79 80 81 81 81 82 82 81 78 77 78 79 81 81 80 80 79 78 77 77 75 74 73 72 72 71 69 68 67 65 65 66 62 57 56 55 51 50 50 48 46 45 44 42 40 38 37 36
60 61 62 63 66 68 72 75 77 71 57 41 32 27 23 21 18 16 15 15 16 16 17 18 20 20 21 23 29 37 46 56 66 75 82 86 88 88 86 83 81 82 81 80 80 82 83 82 80 79 79 79 80 81 81 81 79 79 78 77 76 74 74 74 74 74 73 72 70 67 66 68 66 62 60 59 55 53 52 49 45 45 45 45 43 39 37 35
59 61 61 63 65 68 71 75 77 72 59 43 33 27 23 20 18 17 17 17 17 17 18 20 22 23 25 26 27 33 41 51 61 70 79 85 89 89 87 85 84 82 80 81 82 83 84 83 82 80 79 79 80 82 82 81 80 80 80 78 77 76 75 75 75 77 77 75 73 69 68 69 66 64 63 61 58 56 54 51 47 46 47 48 46 42 39 37
59 60 61 62 64 67 70 74 76 73 61 45 34 28 23 20 18 18 19 19 19 19 20 21 23 24 26 28 29 32 38 46 55 65 75 83 87 88 88 88 86 83 82 84 84 85 85 84 83 82 80 79 81 82 82 82 82 82 80 79 78 78 76 76 77 78 78 77 75 73 72 71 68 66 65 63 61 58 56 53 50 47 46 47 48 45 42 40
58 60 60 62 64 66 69 72 76 75 64 48 36 29 23 20 19 19 21 22 22 22 22 23 24 24 25 28 31 32 36 43 51 60 70 78 85 88 90 90 88 85 84 84 84 84 85 84 84 84 83 81 82 82 82 84 84 81 80 80 80 79 77 77 77 78 79 79 77 76 75 73 71 68 66 64 63 60 57 55 53 50 47 47 48 46 44 42
58 60 60 61 63 65 68 71 74 75 68 53 39 30 25 21 20 21 23 25 26 25 24 23 23 24 24 27 32 34 35 41 48 56 65 74 82 88 90 91 90 88 86 84 84 85 85 84 84 85 85 84 83 83 83 83 82 80 81 82 81 80 78 78 78 78 80 80 79 80 79 77 74 71 67 66 64 62 60 57 56 54 50 49 49 47 46 45
57 59 60 61 63 65 67 70 73 75 70 57 42 33 26 22 21 22 25 27 29 28 25 21 22 24 23 25 31 35 36 39 46 53 62 71 79 85 89 91 91 90 88 86 85 85 86 86 86 87 87 86 85 83 82 82 80 81 82 81 80 81 79 78 79 79 80 81 81 82 83 81 79 76 70 66 65 64 63 60 58 57 54 51 50 49 49 49
57 59 60 61 62 65 67 69 72 75 72 62 47 35 28 23 22 24 26 28 30 29 25 19 19 22 23 24 28 35 38 40 45 52 59 67 75 82 87 90 91 90 89 87 86 86 87 87 87 87 87 87 85 83 82 82 81 81 81 80 81 81 79 78 79 80 80 81 82 83 84 84 84 83 77 71 69 68 66 63 61 60 58 54 52 51 51 51
56 58 59 60 62 64 67 69 71 74 73 65 52 39 30 25 23 25 27 29 30 30 26 19 16 19 22 23 26 33 39 42 46 50 55 62 70 77 84 88 91 91 90 88 87 88 88 88 87 87 86 87 86 85 83 83 82 82 82 82 83 82 80 79 80 80 80 81 82 84 85 84 85 86 83 79 77 73 69 67 64 62 61 59 55 53 53 52
55 58 59 60 62 64 66 68 71 73 74 69 57 43 32 26 25 27 29 30 31 31 27 20 16 16 18 21 24 30 38 43 46 49 53 59 66 74 81 86 90 92 91 89 90 91 90 90 88 87 88 87 87 86 85 84 83 83 84 84 85 84 82 81 81 81 81 81 82 84 85 85 85 85 85 84 81 76 74 71 68 65 63 62 59 54 53 53
55 57 59 60 61 63 65 68 70 72 74 71 62 47 35 28 26 28 30 31 33 32 28 21 17 14 15 18 22 28 36 43 46 48 51 56 62 70 77 83 88 91 91 92 92 91 90 90 88 88 87 86 86 88 88 86 85 86 86 85 85 84 82 81 82 83 82 83 83 85 86 87 86 85 84 84 82 78 77 75 72 69 66 64 62 57 54 55
54 56 58 60 61 62 65 67 69 71 73 73 66 52 37 29 27 28 30 32 34 33 29 23 19 15 12 15 19 25 32 40 46 49 51 54 58 65 72 78 84 89 92 94 94 91 90 90 89 88 87 86 88 91 91 89 88 87 85 84 83 82 81 81 81 82 83 84 84 85 85 87 87 86 84 85 84 81 79 78 76 73 70 67 66 60 56 57
54 56 58 59 61 62 64 66 68 70 72 73 69 56 41 31 29 29 31 33 34 35 31 25 20 16 12 12 16 21 28 37 44 48 50 52 55 61 67 73 80 86 91 94 94 92 92 91 90 89 89 88 89 91 90 89 88 85 82 81 82 82 82 81 81 82 83 83 83 83 85 87 88 87 86 85 85 83 82 81 79 77 74 70 68 65 59 58
53 55 57 59 60 62 63 66 67 69 71 73 71 61 45 34 30 30 31 33 35 36 33 27 22 18 13 10 13 18 24 32 40 46 50 52 55 58 63 70 77 83 88 92 93 92 92 90 90 90 90 90 90 90 89 88 86 84 82 82 82 82 82 82 82 82 81 81 82 83 85 87 88 88 87 86 85 84 84 83 82 80 78 74 72 69 63 60
53 55 57 58 60 61 63 65 67 68 71 72 72 64 50 37 32 30 32 33 35 36 34 28 24 19 14 11 11 14 20 28 36 43 49 53 55 56 60 66 73 80 85 88 90 91 91 90 90 90 90 90 90 90 89 89 88 87 85 84 83 83 83 83 82 81 81 81 83 85 87 88 88 88 88 87 86 86 85 85 84 82 81 78 75 72 67 63
53 54 56 58 59 60 62 64 66 68 69 71 72 67 54 40 33 31 32 33 34 36 35 30 25 21 16 11 10 12 16 23 30 39 46 52 55 56 58 63 69 75 81 85 88 89 90 90 91 91 91 90 90 89 89 89 89 89 88 87 85 84 84 84 82 81 82 82 84 86 87 89 87 86 87 87 87 88 87 87 86 85 84 82 78 76 71 66
53 54 56 57 59 60 61 63 65 67 68 70 72 69 57 43 35 32 32 33 34 36 36 32 26 22 18 13 9 10 14 19 26 34 42 49 54 57 59 61 65 71 76 81 85 86 88 91 93 92 92 91 90 89 88 88 89 90 90 89 87 86 85 84 83 82 83 84 85 86 87 88 86 86 86 87 87 88 88 88 88 87 87 85 82 80 75 68
53 54 55 57 58 60 61 62 64 65 67 69 71 70 61 47 37 33 32 33 34 35 36 33 28 23 19 14 10 8 11 16 22 29 37 45 52 57 59 60 62 66 72 77 82 84 87 92 93 93 92 91 90 89 88 88 88 89 90 90 89 88 86 85 84 84 84 84 85 87 87 87 86 86 87 87 87 87 88 90 90 89 90 89 86 83 78 73
52 53 55 56 58 59 60 61 63 64 66 68 69 70 63 50 38 33 31 32 33 35 36 34 29 24 20 16 11 8 9 13 18 25 32 40 49 55 58 59 60 63 67 73 78 82 86 89 91 92 93 92 91 90 88 88 88 89 90 91 90 89 87 86 86 85 85 85 85 86 86 86 86 87 87 88 88 88 88 90 91 91 91 91 90 87 81 78
52 53 55 56 57 58 59 60 61 63 65 66 68 69 65 53 40 33 31 31 32 34 35 34 30 26 22 18 13 9 8 11 15 21 27 35 44 52 57 59 60 61 64 69 74 79 83 86 88 90 92 92 92 90 89 89 90 90 90 91 91 90 89 88 87 86 85 86 86 85 84 85 87 88 88 89 89 89 89 89 91 92 92 92 92 91 87 84
Wind_Direction
309 306 303 300 298 296 294 293 292 291 289 287 284 280 275 269 264 260 256 252 247 245 246 246 243 239 235 231 229 229 227 225 222 221 223 225 225 223 222 222 222 221 220 218 217 215 214 214 213 214 214 213 212 210 209 209 209 205 200 197 190 185 191 204 196 189 197 193 211 238 252 263 280 291 299 308 10 22 12 25 29 24 32 30 18 24 34 34
307 304 301 299 296 294 293 291 290 289 288 287 286 283 280 275 270 264 259 256 252 247 244 244 244 242 237 233 230 228 227 225 223 222 222 223 224 223 222 221 221 220 220 218 217 216 215 214 213 214 213 213 212 210 209 208 209 207 203 199 194 190 191 204 205 189 190 193 218 240 246 245 261 283 286 296 339 358 359 13 26 25 30 33 20 21 33 34
306 304 302 299 296 294 292 291 289 288 286 285 284 283 281 279 275 270 264 259 255 251 246 242 242 242 240 236 232 229 227 226 223 223 222 222 223 223 222 221 220 220 220 218 218 216 216 214 213 213 213 212 212 210 208 208 209 208 205 201 197 196 194 204 213 203 192 189 217 234 235 239 259 273 269 282 313 334 350 3 26 32 30 35 24 20 31 34
305 304 303 300 298 295 293 291 290 288 286 285 283 282 281 280 277 274 270 264 258 253 250 245 241 241 241 238 234 230 228 226 224 224 222 221 222 222 221 220 220 220 219 218 218 217 216 215 213 213 213 213 212 211 209 208 208 208 207 202 200 199 199 205 215 217 206 192 208 225 229 236 258 264 254 264 297 315 342 360 37 43 31 34 27 20 29 34
305 304 303 302 299 296 294 291 289 287 286 284 283 281 280 278 277 275 272 268 263 256 252 248 244 241 240 239 236 232 229 227 226 224 222 221 222 221 220 220 219 219 218 218 218 217 216 214 213 212 213 213 213 212 210 208 208 208 207 204 201 200 203 206 213 220 209 196 206 221 232 233 242 247 238 251 275 298 335 17 48 47 34 32 27 20 27 33
305 306 305 303 301 298 295 292 289 287 285 283 282 281 279 277 276 274 272 270 266 260 254 249 247 243 240 238 237 234 230 227 226 225 222 221 222 221 220 219 219 219 218 218 218 217 216 215 213 212 212 213 213 212 211 209 208 207 206 204 201 201 206 207 213 218 200 196 211 215 229 229 227 223 215 237 239 262 326 48 51 46 36 29 24 19 25 32
306 307 306 304 301 298 295 292 289 287 285 283 282 280 278 277 275 273 271 269 267 263 258 251 247 245 242 238 236 235 232 229 227 225 223 221 221 221 220 219 218 218 218 218 217 217 216 215 213 212 212 213 213 213 212 209 207 206 206 204 199 201 209 208 210 212 194 196 210 207 221 222 215 209 204 225 223 232 311 67 54 46 35 24 18 17 25 31
305 307 306 304 301 297 293 290 287 286 285 283 282 280 278 277 275 273 271 268 266 264 261 255 248 244 242 239 236 234 233 231 227 226 224 221 221 221 220 219 217 218 217 217 217 216 216 215 213 212 212 213 213 213 212 209 207 206 205 202 198 200 208 209 208 207 196 196 201 199 212 213 206 208 203 211 211 206 151 85 56 45 30 18 14 15 24 30
305 307 307 305 302 297 293 289 287 285 284 284 283 281 280 278 275 273 271 268 266 263 261 257 251 245 241 239 236 233 232 231 228 226 225 223 221 220 220 219 217 217 217 217 216 216 215 214 213 212 211 212 213 213 212 209 207 205 204 201 200 202 206 208 207 204 199 196 192 195 207 209 206 209 203 202 201 185 159 128 55 40 22 12 10 15 23 29
306 308 309 307 304 299 295 291 289 287 286 285 284 283 281 279 276 273 270 268 265 263 260 257 253 248 242 238 235 233 231 231 229 227 225 223 222 220 220 219 217 216 217 216 216 216 215 214 213 212 211 212 213 213 212 210 207 204 203 201 201 206 206 204 204 200 198 198 193 196 205 210 213 209 199 198 197 165 158 163 47 28 10 7 8 15 22 28
308 309 311 310 306 302 298 295 292 291 289 288 287 285 283 280 277 273 269 266 264 261 259 256 253 249 244 238 234 232 230 229 228 227 225 223 222 221 220 219 217 215 216 216 214 215 214 213 213 212 211 211 212 212 211 210 207 204 202 201 201 208 206 200 203 200 192 195 195 198 205 209 212 210 199 195 196 167 160 197 15 8 355 1 7 15 19 26
311 312 314 312 309 305 302 299 297 296 294 293 292 290 286 283 278 274 269 264 261 259 257 254 251 249 245 239 233 230 228 228 227 226 224 223 222 221 220 219 217 215 215 215 214 214 214 213 213 212 211 211 211 211 211 210 207 203 201 201 200 206 208 200 201 197 185 183 187 195 208 212 212 210 202 198 201 192 176 209 258 328 333 350 5 14 17 22
313 315 316 315 311 308 306 304 302 300 300 299 297 295 291 287 281 275 269 263 258 255 254 252 249 247 244 241 235 229 226 226 225 225 224 222 221 221 221 220 218 216 215 215 214 213 212 213 212 212 211 210 211 211 210 210 208 203 200 200 200 203 209 204 199 192 184 181 179 188 208 216 216 211 205 203 206 206 198 209 241 282 297 333 359 11 15 18
316 318 318 317 314 311 309 307 306 305 304 304 302 300 297 292 285 277 270 263 256 252 249 248 246 244 242 240 236 229 225 224 223 224 222 222 221 220 220 220 218 216 215 214 213 212 211 212 212 211 210 210 211 210 210 209 208 205 201 201 200 200 205 207 202 192 187 184 178 186 204 215 220 215 207 207 208 211 208 208 228 249 262 299 345 12 14 14
319 320 320 319 316 314 312 311 310 309 309 308 307 305 301 296 289 280 270 261 254 249 245 244 243 241 239 238 235 230 225 222 221 222 221 220 220 220 220 220 218 216 215 214 213 212 211 211 211 211 210 210 210 209 209 208 207 205 203 204 202 199 201 206 205 198 191 185 180 189 201 209 220 220 211 208 208 208 205 206 220 225 234 265 316 20 14 11
321 322 322 321 318 317 315 314 313 313 313 312 311 309 305 299 291 281 270 260 252 245 241 239 238 237 236 235 233 230 226 222 219 219 220 219 218 219 219 219 218 216 215 215 213 212 211 211 211 211 210 210 209 208 207 206 206 206 203 205 204 201 202 205 207 205 195 182 182 194 202 205 216 220 215 212 208 205 200 210 220 208 211 240 239 44 14 9
323 324 324 323 321 320 319 318 317 317 316 316 315 313 309 302 293 282 270 259 249 242 237 234 233 233 232 231 230 229 226 223 218 216 217 217 216 217 218 218 217 216 215 215 213 212 210 210 211 211 210 210 209 207 206 204 203 205 204 204 203 200 202 204 206 206 196 184 186 199 204 207 215 219 217 212 210 210 205 210 213 192 198 230 212 142 359 7
324 326 326 325 324 323 322 321 320 320 320 319 318 315 310 303 294 282 270 257 247 238 233 230 229 228 228 228 227 226 225 222 218 214 215 216 215 215 216 217 216 216 215 214 213 212 210 210 210 211 210 211 210 207 206 204 201 205 205 204 203 199 198 201 205 203 197 191 190 195 200 207 216 220 219 214 213 216 209 205 209 204 211 224 210 196 249 7
326 327 327 327 327 326 325 324 323 323 323 323 321 317 311 304 295 283 270 258 246 236 230 226 224 224 224 224 224 224 223 221 217 213 212 214 215 214 214 215 215 215 215 214 213 212 210 209 209 210 210 211 210 208 207 204 202 204 204 202 203 200 196 199 203 200 196 196 191 190 194 204 214 219 220 218 217 219 212 202 209 220 222 219 209 207 225 233
328 329 329 329 329 329 327 326 326 326 326 325 323 318 312 306 298 287 274 260 248 237 229 223 221 220 221 221 221 222 222 221 217 213 211 213 214 213 213 214 214 214 215 214 213 212 210 208 208 209 210 210 209 208 208 206 204 204 203 201 201 200 197 196 200 197 196 200 195 191 196 203 213 217 219 219 217 219 214 202 206 220 222 215 210 209 221 213
329 331 331 331 331 330 329 329 329 329 329 328 324 319 314 309 301 293 280 265 250 238 229 223 219 217 218 218 219 219 220 219 218 214 212 212 213 213 212 213 213 213 214 214 213 213 211 209 209 209 209 210 209 208 208 207 206 206 204 202 201 200 197 196 197 194 194 199 196 194 198 203 212 217 218 217 215 215 212 205 206 215 218 215 211 207 218 218
331 333 333 333 333 332 331 331 332 332 332 329 325 321 316 311 305 297 285 269 254 241 231 223 218 216 215 215 216 217 217 218 217 215 212 212 212 212 212 212 212 212 213 214 213 212 211 210 210 210 209 208 208 208 208 207 206 207 205 204 204 201 199 197 198 196 194 195 194 193 196 203 212 216 218 218 214 212 210 207 209 212 215 214 210 205 213 218
333 335 335 334 334 334 334 334 335 335 335 331 327 323 319 314 308 299 287 271 256 243 233 224 219 215 213 213 213 214 215 216 216 215 213 211 210 211 212 211 211 211 212 213 213 211 211 210 210 210 209 207 208 208 208 206 206 206 205 205 205 204 201 199 200 199 195 193 192 190 191 198 209 213 218 220 215 212 211 210 212 213 212 209 204 202 204 205
335 336 336 336 336 336 336 337 338 338 337 333 329 326 321 316 310 300 287 272 257 244 235 226 219 215 212 211 211 212 213 214 215 215 214 211 209 210 211 211 210 210 211 212 212 211 211 210 210 210 209 207 207 208 208 206 206 205 204 204 204 204 203 200 201 202 198 194 193 192 191 194 201 207 215 219 216 214 212 211 214 214 212 209 205 204 201 196
336 337 337 337 337 338 339 340 341 341 339 335 332 328 323 317 312 302 288 273 258 244 235 227 221 216 212 211 210 210 211 212 213 214 214 211 209 209 210 211 210 210 210 211 211 211 211 210 211 210 208 207 207 207 207 206 206 205 204 205 204 204 203 200 200 201 200 198 197 195 194 195 198 203 210 215 215 214 212 212 214 214 215 213 208 207 203 198
337 338 338 338 339 340 342 343 344 344 341 337 334 330 325 320 314 306 292 275 259 246 236 228 222 217 213 211 210 209 210 211 212 213 214 212 210 209 209 211 210 209 210 210 211 211 210 211 211 211 209 208 207 207 207 207 206 206 205 206 205 205 205 202 200 201 201 201 201 199 198 197 198 200 205 211 215 216 214 213 215 216 217 217 211 205 201 201
338 338 338 339 340 342 344 346 347 346 343 339 336 332 327 323 317 310 298 281 263 249 238 230 223 218 214 211 210 209 209 210 211 212 213 212 210 209 209 210 210 209 209 210 211 210 210 210 210 210 211 209 208 207 207 207 206 206 206 206 206 206 207 203 200 202 202 202 202 201 199 197 197 199 201 205 211 215 215 214 216 217 219 220 215 205 201 205
338 339 339 340 342 344 347 349 349 348 345 341 338 333 329 325 320 314 306 291 271 253 241 232 225 220 216 212 210 209 209 209 210 211 212 213 211 210 209 209 209 210 210 210 210 210 210 210 209 209 210 210 209 208 207 207 207 207 206 206 206 207 208 205 201 202 203 202 201 201 199 197 196 197 200 202 206 212 216 218 220 221 221 221 217 208 205 210
339 339 340 342 344 346 349 351 352 350 347 342 338 333 329 326 322 319 312 302 286 263 247 236 228 222 218 214 211 210 209 209 209 210 212 213 212 211 209 209 209 210 210 210 210 210 210 210 209 209 210 210 210 208 207 207 207 207 207 207 207 207 208 206 204 203 204 203 202 202 200 198 196 196 200 203 204 209 217 220 221 222 221 220 218 210 208 214
339 340 341 343 345 348 351 353 353 352 348 343 338 333 329 325 322 320 316 312 304 284 263 243 232 225 220 217 213 211 209 209 208 209 210 212 213 212 209 209 209 210 211 210 210 210 211 210 210 210 211 210 210 209 209 207 207 207 207 207 207 208 208 207 206 205 205 206 205 204 202 199 197 196 200 204 202 205 212 216 217 219 218 217 217 210 208 215
340 341 342 344 347 350 353 355 355 353 349 344 338 333 328 323 319 317 314 314 312 301 287 265 244 230 223 220 215 212 210 209 208 208 209 211 212 212 210 209 209 210 211 210 209 210 210 210 210 210 211 211 210 211 210 208 208 207 207 208 208 208 208 206 205 205 206 207 207 206 203 201 198 197 200 204 201 201 208 212 214 215 215 214 213 208 207 212
340 341 343 345 348 351 354 356 356 355 351 345 338 331 327 321 315 312 309 308 306 300 295 286 268 245 229 223 219 214 211 210 209 208 209 210 211 212 211 210 209 209 210 209 208 209 210 210 210 210 210 211 211 211 210 209 209 208 208 208 208 208 208 206 204 204 204 205 207 206 205 202 199 198 201 204 201 200 205 210 212 213 214 215 213 209 208 211
341 342 344 346 349 352 355 357 357 356 352 346 338 330 323 317 311 309 305 302 300 296 293 287 279 265 243 228 222 218 214 211 209 209 209 209 211 211 212 211 209 210 210 209 208 209 210 210 209 210 210 211 211 211 211 210 210 209 208 208 209 208 208 206 205 205 204 204 205 206 206 205 202 200 202 204 202 199 202 208 212 214 215 216 216 212 210 213
341 343 344 347 350 353 355 357 358 356 353 348 340 329 321 315 311 307 303 297 293 289 284 279 274 267 255 238 225 220 217 213 210 209 209 209 210 211 211 211 210 210 209 209 209 210 210 209 209 209 210 211 211 211 211 210 210 209 209 208 208 208 208 207 206 206 205 205 204 204 206 206 205 204 203 203 204 200 199 204 208 212 214 214 216 216 213 214
342 343 345 347 350 353 356 358 359 357 354 350 342 332 322 314 309 303 297 293 290 287 283 278 269 261 254 244 230 221 218 215 212 210 209 210 210 211 211 211 211 210 208 208 209 210 211 210 209 210 210 211 211 211 211 211 210 210 209 208 208 208 208 208 207 206 206 206 204 203 206 206 205 205 202 200 203 201 199 200 203 207 210 210 213 215 214 214
342 344 345 347 350 353 356 358 359 358 356 351 344 335 325 314 306 301 298 299 299 299 296 288 274 259 249 243 235 223 217 215 213 211 210 210 210 211 211 211 212 210 209 209 208 209 210 209 209 210 210 211 212 212 211 211 211 210 209 208 208 208 208 208 208 208 207 207 205 203 205 206 205 205 201 199 201 202 200 199 200 204 205 205 208 212 213 214
342 344 345 347 350 354 356 358 359 359 357 352 346 338 327 316 310 308 309 311 312 311 308 298 282 264 247 239 235 227 218 215 214 212 211 210 210 210 210 211 211 211 210 209 209 210 211 209 209 210 210 211 211 211 212 212 211 210 209 208 209 208 207 208 208 208 208 207 206 205 206 206 205 206 203 200 200 201 201 199 199 202 201 200 204 207 208 212
342 344 345 347 350 353 356 358 359 359 358 354 347 340 331 322 317 317 317 319 319 318 316 305 287 270 250 234 231 228 220 214 214 212 211 210 210 210 210 211 211 211 210 210 209 210 211 210 210 210 210 211 211 211 211 212 211 211 210 209 209 208 207 208 209 208 208 208 207 206 207 206 205 207 206 203 201 201 201 200 198 201 201 198 202 204 204 209
342 344 345 347 350 353 355 358 359 359 358 355 349 342 334 326 322 321 321 323 322 322 321 309 288 272 256 235 226 225 221 215 214 213 211 210 210 210 210 211 211 211 211 210 209 210 211 210 210 210 210 211 211 211 211 212 211 212 212 210 210 210 208 208 209 209 209 208 208 208 209 208 206 207 206 206 206 204 202 201 198 199 202 199 200 204 204 207
341 344 346 347 350 352 355 357 359 360 359 356 351 344 336 330 325 324 324 325 325 326 325 312 289 273 260 241 225 220 219 215 213 213 212 211 210 210 210 211 211 212 211 210 209 210 211 211 210 211 211 211 212 212 212 211 211 211 212 211 211 211 210 209 210 211 209 209 209 210 211 210 208 207 207 208 210 208 205 203 199 199 202 201 201 204 205 207
341 344 346 347 349 352 354 356 358 359 359 357 353 346 339 333 328 326 327 328 329 330 329 318 298 278 261 245 227 218 217 215 213 212 212 211 210 210 210 210 211 211 212 211 210 210 211 211 211 211 211 212 212 212 212 212 211 211 211 211 211 211 210 209 210 211 210 209 210 211 212 212 211 209 210 211 212 211 208 205 201 201 203 202 202 205 205 206
341 343 346 347 349 351 353 355 357 359 359 358 354 349 342 336 330 328 330 331 333 334 333 327 314 290 265 247 230 218 215 215 214 212 211 210 210 210 209 209 210 211 211 211 211 210 211 211 211 211 211 211 212 212 213 212 212 212 211 211 211 210 209 209 210 211 211 210 210 212 213 214 213 211 211 213 213 212 210 208 204 204 206 203 202 204 205 205
340 343 345 347 349 350 353 355 356 358 359 358 356 351 344 337 331 330 333 335 336 337 337 334 326 306 274 251 235 221 216 215 214 212 210 210 210 210 209 209 210 210 210 211 212 211 211 211 211 211 212 211 212 213 213 213 212 212 212 211 212 211 210 210 211 211 211 210 210 211 213 215 215 213 212 214 213 212 211 209 207 206 207 204 202 204 203 204
340 342 345 347 348 350 352 354 355 357 358 358 356 352 346 338 333 333 336 338 339 340 341 340 336 321 288 257 238 225 217 215 214 212 210 209 209 210 209 209 210 210 210 211 212 212 212 212 211 211 212 211 212 213 214 213 213 213 212 212 212 212 211 212 212 212 212 212 211 211 213 215 216 214 214 214 214 212 211 210 208 207 208 205 203 203 202 202
339 341 344 346 347 349 351 353 355 356 357 358 357 354 348 339 335 335 338 340 342 343 344 343 342 333 307 270 244 228 219 216 214 212 210 209 209 209 208 208 209 210 211 212 212 212 212 212 211 212 212 211 212 214 214 214 214 214 213 213 213 213 212 212 213 213 214 214 213 213 214 216 216 214 215 215 214 213 212 212 210 208 209 207 204 203 201 200
338 340 343 345 346 348 349 351 354 355 356 357 357 354 349 341 337 337 339 341 344 346 345 344 345 342 325 290 256 234 222 217 214 212 210 208 208 208 207 208 208 209 211 213 213 212 213 213 212 212 212 212 212 213 214 214 215 215 215 214 214 214 213 213 213 214 214 215 215 215 215 217 216 214 215 216 215 214 213 212 211 209 209 209 206 203 201 199
337 339 341 344 345 346 348 350 352 354 355 356 356 355 351 343 337 337 339 342 345 347 346 345 347 346 337 313 275 245 227 219 215 212 210 208 207 207 207 207 208 208 210 211 212 213 213 213 214 214 214 213 213 213 213 213 214 214 215 215 215 215 214 214 213 213 214 214 216 216 216 217 217 215 215 216 216 216 214 213 212 209 209 210 208 205 202 199
336 338 340 342 344 345 347 349 351 353 354 355 356 355 352 344 338 337 339 341 344 347 347 346 346 347 343 329 295 260 236 223 216 213 211 209 207 207 207 207 207 208 209 210 211 212 213 213 214 215 215 215 214 213 213 213 214 214 215 215 215 215 215 215 214 214 214 214 216 217 217 218 218 216 216 217 217 217 216 214 213 211 209 210 211 209 205 200
334 337 338 340 342 344 345 347 349 352 353 354 355 355 352 345 338 336 338 340 343 346 347 345 345 346 346 339 313 275 247 230 219 213 211 209 206 206 207 207 207 208 208 208 209 210 211 213 214 214 215 216 215 214 214 214 214 215 215 216 215 215 216 215 215 214 215 215 216 218 219 219 218 217 216 217 218 218 217 216 215 213 211 211 211 212 209 203
333 335 337 338 340 342 344 346 348 350 352 353 354 355 353 346 338 335 336 339 342 345 347 345 344 346 348 344 327 291 257 237 224 216 211 209 207 206 207 207 207 208 208 208 208 208 210 213 213 214 215 215 216 215 214 215 215 216 216 217 216 216 216 216 216 215 215 216 217 218 219 220 219 218 218 218 218 218 218 217 216 215 214 212 212 213 212 207
331 333 335 336 338 340 342 344 346 348 351 352 353 354 353 348 339 333 334 336 340 344 346 345 344 346 348 346 336 309 270 244 230 219 212 209 207 206 207 207 208 208 208 208 208 207 209 212 213 214 214 215 215 215 215 215 216 216 217 217 217 217 217 217 217 216 216 217 218 219 220 220 220 219 219 219 219 218 218 218 218 216 216 215 213 212 213 211
329 331 333 334 337 339 340 342 344 346 349 351 352 353 353 348 340 333 331 334 339 343 345 345 344 345 348 348 341 324 288 255 236 224 215 210 207 206 207 207 208 208 208 208 208 208 209 211 212 214 215 215 215 215 215 216 216 216 217 217 217 218 218 218 218 217 217 218 219 219 220 222 221 220 220 220 220 220 219 219 219 218 217 217 215 213 212 214
Height
10930 10929 10928 10927 10926 10926 10925 10924 10924 10923 10923 10923 10922 10922 10921 10921 10921 10921 10921 10922 10922 10922 10923 10924 10925 10927 10929 10931 10933 10935 10938 10942 10945 10949 10951 10951 10953 10958 10962 10965 10968 10972 10975 10979 10982 10986 10990 10993 10996 10998 11001 11004 11007 11011 11013 11016 11019 11021 11024 11027 11029 11031 11031 11031 11031 11031 11031 11033 11034 11034 11035 11034 11034 11034 11033 11033 11032 11030 11030 11028 11027 11025 11023 11021 11020 11017 11015 11014
10927 10926 10925 10924 10923 10922 10922 10921 10920 10920 10919 10918 10918 10917 10917 10917 10917 10917 10917 10917 10917 10918 10918 10919 10920 10921 10923 10926 10928 10930 10933 10936 10941 10944 10944 10946 10949 10953 10957 10960 10964 10967 10971 10975 10979 10982 10986 10989 10992 10995 10998 11001 11005 11008 11011 11014 11017 11020 11023 11026 11028 11029 11029 11029 11029 11030 11030 11032 11033 11034 11034 11034 11034 11034 11033 11033 11032 11031 11031 11030 11028 11026 11024 11023 11021 11019 11017 11015
10925 10924 10923 10921 10920 10919 10918 10917 10916 10915 10915 10914 10913 10913 10913 10912 10912 10912 10912 10912 10913 10913 10914 10914 10915 10916 10917 10919 10922 10926 10928 10931 10936 10938 10939 10942 10945 10947 10952 10956 10960 10963 10967 10971 10974 10978 10981 10984 10988 10992 10996 10999 11003 11006 11009 11012 11015 11018 11021 11024 11026 11027 11028 11028 11029 11029 11030 11033 11033 11033 11034 11034 11034 11034 11034 11034 11033 11032 11032 11031 11029 11028 11026 11024 11023 11021 11018 11017
10923 10921 10920 10919 10917 10916 10914 10913 10912 10911 10910 10909 10908 10908 10907 10907 10907 10907 10907 10907 10907 10908 10909 10910 10910 10911 10911 10913 10916 10920 10923 10926 10930 10932 10934 10938 10939 10942 10947 10951 10955 10959 10963 10966 10970 10973 10977 10982 10986 10990 10994 10997 11000 11004 11007 11010 11013 11016 11019 11022 11024 11026 11027 11027 11028 11028 11030 11032 11032 11033 11034 11034 11034 11034 11034 11034 11034 11033 11032 11032 11030 11029 11027 11025 11024 11022 11020 11019
10919 10918 10916 10915 10913 10912 10910 10909 10907 10906 10905 10904 10903 10902 10901 10901 10901 10900 10901 10901 10901 10902 10903 10904 10905 10906 10906 10908 10910 10913 10917 10922 10924 10925 10929 10932 10933 10937 10942 10947 10951 10954 10958 10962 10965 10969 10974 10978 10983 10987 10991 10995 10998 11001 11005 11008 11011 11014 11017 11020 11023 11025 11026 11027 11027 11028 11030 11031 11031 11032 11033 11034 11034 11034 11034 11034 11034 11033 11033 11033 11031 11029 11028 11026 11025 11024 11022 11021
10915 10914 10912 10911 10909 10907 10906 10904 10902 10901 10899 10898 10897 10896 10895 10894 10894 10894 10893 10893 10894 10895 10896 10898 10899 10900 10901 10902 10904 10907 10912 10916 10917 10919 10923 10927 10928 10932 10937 10942 10945 10949 10953 10957 10960 10965 10970 10975 10980 10985 10988 10992 10995 10998 11001 11005 11008 11012 11016 11019 11022 11024 11025 11027 11027 11028 11029 11030 11030 11032 11033 11033 11034 11034 11034 11034 11034 11034 11033 11033 11032 11030 11029 11028 11027 11026 11024 11022
10912 10910 10908 10906 10904 10903 10901 10899 10897 10895 10893 10892 10890 10889 10888 10887 10886 10886 10885 10885 10886 10887 10888 10890 10892 10893 10894 10897 10898 10901 10905 10909 10911 10914 10918 10922 10924 10928 10932 10936 10940 10944 10948 10952 10957 10962 10967 10972 10977 10981 10985 10988 10992 10995 10998 11002 11006 11011 11014 11017 11021 11023 11024 11025 11026 11027 11028 11029 11029 11030 11032 11032 11033 11034 11034 11034 11034 11034 11034 11033 11032 11031 11030 11029 11029 11027 11025 11024
10908 10906 10904 10902 10900 10898 10895 10893 10891 10888 10886 10885 10883 10882 10880 10879 10878 10877 10877 10877 10877 10878 10879 10881 10883 10885 10887 10890 10892 10896 10899 10902 10905 10908 10912 10916 10919 10923 10926 10930 10935 10939 10944 10949 10953 10958 10963 10968 10973 10978 10982 10985 10989 10992 10995 11000 11005 11009 11012 11017 11020 11020 11020 11022 11024 11025 11027 11028 11028 11029 11030 11031 11033 11034 11034 11035 11035 11034 11034 11034 11033 11031 11031 11030 11030 11029 11027 11025
10904 10901 10899 10897 10894 10892 10889 10887 10884 10882 10879 10877 10875 10873 10872 10871 10870 10869 10868 10867 10867 10868 10870 10871 10874 10876 10879 10882 10885 10889 10892 10895 10899 10902 10906 10910 10913 10917 10920 10924 10930 10935 10939 10944 10949 10954 10958 10964 10970 10974 10978 10982 10985 10988 10992 10997 11002 11006 11011 11015 11018 11017 11018 11021 11022 11024 11025 11026 11027 11028 11029 11031 11032 11033 11034 11035 11035 11035 11035 11034 11033 11032 11032 11032 11031 11030 11028 11027
10899 10896 10894 10891 10888 10885 10882 10879 10876 10874 10872 10869 10867 10865 10863 10861 10860 10859 10858 10857 10857 10858 10859 10861 10863 10866 10869 10873 10877 10883 10885 10888 10892 10896 10900 10904 10907 10911 10914 10919 10925 10930 10934 10939 10944 10949 10954 10961 10966 10970 10974 10978 10981 10984 10989 10995 10999 11004 11009 11013 11015 11014 11017 11020 11021 11022 11023 11025 11026 11027 11029 11030 11032 11033 11034 11035 11035 11035 11035 11035 11034 11033 11033 11033 11033 11032 11030 11028
10894 10891 10888 10885 10881 10878 10875 10871 10868 10865 10863 10860 10858 10855 10853 10850 10848 10847 10847 10846 10846 10846 10847 10850 10853 10855 10859 10863 10869 10874 10877 10881 10885 10888 10893 10897 10901 10905 10909 10913 10919 10924 10928 10933 10939 10945 10951 10957 10961 10965 10969 10973 10977 10981 10986 10991 10995 11001 11006 11010 11012 11011 11014 11018 11019 11019 11022 11024 11025 11027 11028 11029 11031 11032 11034 11034 11035 11035 11035 11035 11035 11034 11034 11034 11034 11033 11031 11030
10888 10885 10881 10878 10874 10870 10866 10863 10859 10856 10853 10850 10847 10844 10841 10838 10836 10834 10833 10833 10833 10833 10835 10838 10841 10845 10848 10853 10859 10864 10869 10873 10877 10881 10886 10891 10895 10899 10903 10907 10913 10919 10924 10929 10935 10941 10947 10952 10956 10960 10964 10968 10972 10977 10983 10987 10992 10998 11003 11008 11010 11009 11011 11015 11016 11017 11020 11022 11024 11026 11026 11027 11029 11031 11033 11034 11035 11035 11035 11035 11035 11035 11035 11035 11034 11034 11033 11031
10882 10879 10875 10870 10866 10862 10858 10854 10850 10846 10842 10839 10835 10831 10828 10824 10822 10820 10819 10819 10819 10821 10822 10825 10829 10834 10838 10843 10848 10854 10860 10865 10869 10874 10879 10884 10888 10893 10897 10901 10908 10914 10919 10924 10930 10936 10941 10946 10950 10955 10959 10964 10968 10973 10979 10984 10990 10995 11000 11005 11008 11010 11010 11012 11015 11016 11018 11020 11022 11024 11025 11026 11028 11030 11032 11033 11034 11035 11035 11035 11035 11035 11035 11035 11035 11035 11034 11033
10876 10872 10868 10863 10859 10854 10850 10845 10840 10836 10831 10827 10822 10817 10813 10809 10806 10804 10803 10803 10804 10807 10809 10812 10817 10822 10826 10832 10837 10844 10851 10856 10861 10866 10871 10877 10882 10886 10891 10896 10902 10909 10914 10919 10924 10930 10935 10939 10943 10949 10954 10959 10963 10970 10975 10981 10987 10993 10998 11002 11005 11009 11010 11011 11013 11013 11015 11018 11019 11022 11023 11024 11026 11029 11031 11032 11033 11034 11035 11035 11035 11035 11036 11036 11036 11035 11035 11034
10869 10866 10861 10856 10851 10846 10841 10836 10830 10825 10820 10814 10808 10802 10797 10792 10788 10786 10786 10786 10788 10792 10795 10799 10804 10809 10815 10821 10827 10834 10841 10846 10852 10858 10864 10870 10875 10880 10884 10889 10896 10902 10908 10912 10917 10923 10929 10934 10939 10944 10949 10953 10959 10966 10972 10979 10985 10990 10996 10999 11001 11006 11008 11009 11010 11011 11014 11016 11018 11020 11022 11023 11025 11027 11029 11031 11032 11034 11035 11035 11035 11035 11035 11036 11036 11036 11036 11035
10863 10859 10854 10849 10844 10838 10832 10826 10820 10814 10808 10800 10793 10787 10781 10775 10771 10769 10769 10770 10772 10776 10781 10786 10791 10797 10803 10809 10816 10824 10830 10835 10842 10849 10856 10862 10868 10873 10878 10883 10889 10895 10901 10906 10911 10917 10923 10929 10934 10939 10944 10948 10954 10962 10968 10976 10982 10987 10991 10994 10997 11003 11006 11008 11009 11011 11013 11015 11017 11019 11020 11022 11023 11025 11027 11030 11031 11033 11034 11035 11035 11034 11035 11036 11037 11037 11037 11036
10856 10852 10847 10842 10836 10830 10823 10817 10810 10803 10795 10787 10779 10771 10765 10759 10755 10753 10753 10754 10757 10761 10767 10772 10778 10784 10791 10798 10806 10813 10818 10824 10832 10840 10848 10855 10861 10866 10870 10875 10881 10888 10893 10898 10905 10911 10918 10924 10928 10933 10939 10943 10949 10957 10964 10970 10976 10981 10984 10988 10994 11000 11004 11007 11009 11011 11013 11015 11016 11018 11019 11020 11021 11023 11026 11029 11030 11032 11033 11034 11035 11034 11035 11036 11037 11037 11037 11037
10850 10845 10840 10835 10829 10822 10815 10807 10800 10792 10783 10774 10765 10756 10750 10745 10742 10740 10739 10740 10743 10747 10752 10758 10765 10772 10779 10787 10795 10801 10807 10814 10823 10832 10840 10847 10852 10858 10862 10867 10873 10879 10885 10891 10898 10905 10912 10917 10922 10929 10935 10939 10945 10952 10957 10963 10969 10974 10978 10984 10990 10997 11002 11005 11007 11009 11011 11013 11015 11017 11019 11019 11020 11022 11025 11027 11029 11030 11032 11033 11034 11034 11035 11036 11037 11037 11037 11038
10843 10839 10833 10828 10822 10815 10807 10798 10790 10781 10772 10762 10752 10743 10737 10733 10731 10730 10729 10729 10731 10734 10739 10746 10753 10760 10768 10776 10783 10790 10797 10805 10814 10823 10832 10838 10844 10850 10854 10859 10865 10872 10878 10884 10891 10898 10905 10911 10918 10924 10929 10932 10937 10945 10951 10957 10963 10968 10973 10980 10987 10994 11000 11003 11006 11008 11010 11011 11013 11015 11017 11017 11018 11021 11023 11026 11028 11029 11030 11032 11033 11034 11035 11036 11037 11037 11038 11038
10838 10832 10827 10821 10815 10808 10799 10790 10781 10771 10761 10751 10741 10733 10728 10724 10722 10721 10721 10720 10721 10724 10729 10734 10742 10749 10757 10765 10773 10781 10789 10796 10806 10816 10824 10830 10835 10841 10847 10852 10858 10865 10871 10878 10885 10892 10898 10905 10911 10915 10919 10923 10930 10940 10946 10951 10957 10963 10969 10976 10983 10989 10995 11000 11004 11007 11009 11009 11010 11012 11014 11015 11016 11018 11021 11023 11026 11027 11029 11031 11033 11034 11035 11036 11037 11037 11037 11038
10833 10827 10821 10815 10808 10801 10792 10782 10772 10762 10751 10741 10732 10726 10721 10717 10715 10714 10714 10714 10714 10716 10720 10725 10732 10739 10747 10756 10764 10772 10780 10788 10798 10808 10815 10821 10827 10833 10839 10845 10851 10858 10864 10872 10879 10885 10893 10900 10903 10907 10912 10919 10928 10935 10940 10947 10954 10959 10965 10971 10977 10981 10986 10992 10997 11001 11004 11005 11006 11009 11012 11014 11015 11016 11018 11020 11023 11025 11028 11030 11032 11033 11034 11035 11036 11037 11037 11038
10828 10822 10816 10809 10802 10794 10785 10775 10764 10753 10743 10733 10725 10719 10715 10712 10710 10709 10708 10708 10708 10710 10713 10717 10723 10730 10738 10746 10755 10763 10771 10780 10789 10797 10805 10811 10818 10826 10832 10838 10844 10852 10858 10864 10871 10879 10888 10893 10896 10901 10907 10915 10923 10928 10934 10943 10950 10954 10961 10967 10971 10975 10979 10984 10988 10993 10997 10999 11002 11006 11010 11013 11014 11015 11017 11018 11021 11024 11026 11029 11030 11031 11033 11034 11035 11036 11037 11037
10824 10817 10811 10804 10796 10788 10778 10768 10757 10746 10735 10726 10719 10713 10709 10707 10706 10704 10703 10703 10704 10705 10707 10711 10716 10722 10730 10738 10746 10754 10762 10771 10780 10787 10795 10802 10811 10819 10825 10831 10838 10845 10851 10856 10864 10873 10879 10883 10889 10895 10902 10910 10916 10922 10928 10936 10943 10949 10956 10962 10966 10971 10976 10981 10985 10988 10992 10994 10999 11004 11009 11012 11013 11015 11015 11016 11020 11022 11024 11027 11028 11029 11031 11033 11034 11035 11036 11037
10819 10813 10806 10799 10791 10782 10772 10762 10751 10740 10729 10720 10714 10709 10705 10702 10701 10701 10700 10699 10700 10701 10703 10706 10710 10716 10722 10730 10738 10746 10754 10763 10771 10779 10786 10794 10804 10810 10816 10825 10832 10838 10843 10850 10858 10865 10869 10875 10882 10888 10896 10905 10910 10916 10923 10930 10936 10943 10949 10953 10959 10965 10971 10977 10980 10983 10988 10992 10997 11002 11007 11009 11011 11013 11013 11014 11018 11020 11022 11024 11025 11027 11029 11031 11032 11033 11035 11036
10814 10808 10802 10794 10786 10777 10767 10756 10745 10734 10724 10716 10710 10706 10702 10699 10698 10697 10697 10696 10697 10698 10699 10702 10705 10710 10716 10723 10730 10738 10746 10754 10763 10771 10778 10787 10796 10803 10811 10818 10824 10830 10837 10844 10849 10855 10862 10869 10875 10882 10891 10898 10903 10909 10916 10923 10930 10936 10941 10944 10951 10958 10963 10968 10973 10977 10983 10989 10994 10999 11004 11007 11008 11011 11012 11013 11015 11018 11019 11021 11023 11026 11027 11029 11031 11032 11034 11035
10810 10804 10797 10790 10782 10773 10762 10752 10740 10730 10720 10713 10707 10703 10700 10697 10695 10695 10694 10694 10694 10695 10697 10699 10702 10706 10711 10717 10724 10731 10738 10747 10756 10763 10770 10780 10788 10797 10804 10809 10816 10825 10831 10836 10841 10848 10857 10863 10870 10879 10885 10890 10896 10903 10909 10917 10923 10929 10935 10940 10946 10952 10955 10962 10969 10974 10980 10985 10990 10995 10999 11003 11006 11009 11010 11011 11013 11016 11017 11019 11021 11024 11026 11028 11030 11031 11033 11033
10806 10800 10793 10786 10778 10769 10758 10748 10736 10726 10717 10710 10705 10701 10698 10696 10694 10693 10692 10692 10692 10693 10695 10696 10699 10702 10706 10712 10718 10724 10732 10741 10749 10755 10764 10772 10781 10789 10795 10802 10811 10818 10823 10828 10835 10843 10849 10856 10864 10872 10878 10884 10890 10896 10902 10909 10916 10923 10930 10935 10940 10946 10951 10959 10966 10971 10976 10981 10985 10989 10992 10996 11001 11004 11007 11008 11010 11013 11015 11017 11019 11021 11024 11026 11028 11029 11031 11032
10802 10796 10790 10782 10774 10765 10755 10745 10733 10723 10714 10708 10703 10700 10697 10694 10693 10692 10691 10691 10691 10692 10693 10694 10696 10699 10703 10707 10712 10719 10726 10734 10742 10749 10758 10765 10773 10782 10788 10797 10804 10810 10816 10821 10826 10834 10840 10848 10856 10863 10870 10877 10883 10890 10898 10904 10911 10917 10924 10929 10935 10941 10947 10955 10961 10967 10972 10976 10980 10984 10988 10992 10995 11000 11004 11005 11007 11010 11012 11014 11017 11019 11022 11024 11026 11028 11029 11030
10799 10793 10786 10779 10771 10762 10752 10742 10731 10721 10712 10707 10702 10699 10696 10693 10692 10691 10690 10690 10690 10691 10691 10692 10694 10696 10699 10703 10707 10714 10721 10728 10736 10744 10752 10759 10766 10774 10782 10791 10798 10804 10809 10812 10819 10828 10835 10843 10851 10857 10862 10867 10875 10885 10892 10897 10904 10911 10917 10923 10928 10934 10941 10949 10957 10963 10968 10972 10976 10980 10984 10989 10992 10996 11000 11001 11003 11006 11009 11011 11014 11016 11019 11022 11024 11026 11027 11028
10795 10789 10783 10776 10768 10759 10749 10739 10729 10719 10711 10706 10701 10698 10695 10693 10691 10690 10689 10689 10689 10689 10690 10691 10692 10694 10696 10699 10703 10709 10715 10722 10730 10737 10745 10752 10760 10768 10777 10786 10792 10797 10800 10806 10818 10826 10832 10840 10846 10850 10855 10862 10872 10879 10884 10890 10897 10904 10911 10916 10922 10929 10937 10945 10953 10959 10964 10968 10972 10976 10981 10984 10988 10992 10996 10998 10999 11002 11004 11007 11009 11013 11016 11019 11022 11024 11025 11026
10792 10786 10779 10772 10764 10756 10747 10737 10727 10718 10710 10704 10700 10697 10694 10692 10691 10690 10689 10688 10688 10688 10689 10690 10691 10692 10694 10696 10699 10704 10709 10716 10724 10731 10738 10746 10754 10762 10770 10776 10782 10787 10793 10802 10814 10821 10826 10832 10838 10843 10851 10859 10866 10870 10877 10887 10892 10898 10905 10911 10918 10925 10932 10940 10949 10954 10958 10962 10967 10972 10976 10980 10984 10988 10991 10994 10996 10997 11000 11003 11006 11009 11012 11015 11018 11020 11022 11024
10789 10782 10776 10769 10762 10753 10745 10735 10726 10717 10709 10703 10699 10696 10693 10691 10690 10689 10688 10688 10688 10688 10688 10688 10689 10690 10691 10693 10696 10699 10704 10710 10717 10724 10731 10739 10746 10754 10760 10766 10773 10780 10786 10796 10805 10811 10816 10823 10831 10838 10844 10851 10856 10862 10872 10881 10886 10893 10901 10907 10913 10920 10927 10935 10942 10946 10950 10956 10962 10967 10972 10975 10979 10984 10987 10990 10992 10993 10996 10999 11003 11006 11009 11011 11013 11016 11018 11021
10786 10780 10773 10767 10759 10751 10743 10734 10725 10716 10708 10703 10698 10695 10692 10690 10689 10688 10688 10687 10687 10687 10687 10687 10687 10687 10688 10690 10692 10695 10699 10705 10711 10718 10726 10733 10739 10746 10753 10761 10770 10776 10781 10790 10799 10803 10808 10817 10826 10832 10838 10844 10850 10858 10867 10874 10881 10889 10896 10902 10910 10916 10923 10929 10934 10939 10944 10951 10957 10962 10966 10969 10974 10979 10981 10985 10988 10989 10992 10996 10999 11002 11005 11007 11009 11012 11015 11017
10783 10777 10771 10764 10757 10749 10741 10733 10724 10715 10707 10702 10697 10694 10691 10689 10688 10687 10686 10686 10685 10685 10685 10685 10685 10684 10685 10686 10688 10691 10694 10699 10705 10712 10720 10726 10732 10739 10747 10755 10762 10767 10775 10786 10794 10797 10802 10810 10818 10825 10831 10837 10844 10852 10859 10866 10874 10882 10888 10896 10904 10910 10916 10922 10927 10932 10937 10943 10950 10955 10959 10962 10969 10973 10976 10980 10983 10985 10988 10992 10996 10999 11001 11004 11006 11009 11012 11015
10780 10774 10768 10762 10755 10747 10739 10732 10723 10714 10706 10700 10696 10693 10690 10687 10686 10685 10684 10684 10683 10683 10682 10681 10681 10680 10680 10681 10683 10686 10689 10694 10700 10706 10713 10718 10724 10732 10741 10749 10754 10762 10771 10779 10784 10788 10795 10804 10812 10818 10824 10831 10837 10843 10851 10859 10867 10873 10880 10889 10897 10903 10909 10915 10919 10923 10929 10936 10943 10949 10952 10956 10962 10967 10970 10975 10978 10981 10984 10988 10993 10996 10998 11001 11004 11006 11009 11011
10777 10771 10765 10759 10752 10745 10738 10730 10722 10714 10705 10699 10694 10691 10688 10686 10685 10683 10682 10681 10680 10679 10678 10676 10675 10674 10675 10676 10678 10680 10684 10688 10694 10699 10704 10711 10719 10728 10736 10741 10747 10757 10764 10768 10774 10780 10786 10796 10806 10813 10819 10826 10830 10836 10845 10851 10856 10863 10874 10884 10891 10897 10903 10907 10911 10917 10924 10930 10937 10943 10945 10949 10955 10960 10964 10969 10972 10976 10980 10984 10989 10993 10995 10997 11000 11003 11005 11007
10774 10768 10762 10756 10750 10743 10736 10728 10721 10713 10704 10697 10692 10689 10686 10684 10683 10681 10679 10677 10676 10675 10673 10671 10669 10668 10669 10671 10673 10675 10679 10683 10687 10691 10698 10704 10712 10720 10726 10733 10741 10750 10755 10762 10770 10776 10781 10791 10799 10804 10810 10816 10821 10830 10838 10842 10849 10860 10870 10876 10882 10889 10896 10900 10904 10911 10918 10924 10932 10936 10939 10944 10950 10954 10958 10962 10966 10971 10975 10979 10985 10990 10992 10994 10997 11000 11002 11004
10771 10766 10760 10754 10747 10741 10734 10727 10719 10711 10703 10696 10691 10687 10685 10682 10680 10678 10676 10674 10672 10671 10669 10666 10663 10662 10664 10665 10667 10670 10674 10677 10680 10685 10691 10696 10703 10711 10718 10725 10733 10741 10748 10757 10765 10771 10777 10786 10792 10797 10803 10808 10814 10822 10828 10836 10848 10857 10862 10868 10876 10883 10889 10894 10899 10906 10912 10919 10925 10929 10932 10938 10944 10948 10952 10956 10960 10964 10969 10974 10980 10986 10989 10991 10994 10996 10998 11001
10769 10763 10757 10751 10745 10738 10732 10726 10719 10711 10703 10696 10690 10686 10682 10680 10678 10676 10673 10671 10669 10667 10665 10662 10658 10657 10657 10659 10662 10664 10668 10672 10674 10678 10682 10687 10694 10702 10710 10718 10726 10734 10742 10750 10758 10765 10770 10777 10782 10788 10795 10800 10807 10816 10825 10834 10844 10849 10855 10865 10872 10877 10883 10890 10894 10900 10906 10912 10918 10921 10925 10931 10936 10941 10946 10950 10954 10958 10964 10969 10975 10981 10985 10988 10991 10993 10994 10997
10766 10760 10755 10749 10742 10736 10730 10724 10718 10710 10702 10695 10689 10684 10681 10678 10676 10674 10671 10669 10666 10663 10661 10658 10655 10652 10652 10653 10656 10658 10662 10665 10667 10670 10675 10680 10687 10695 10703 10711 10720 10728 10736 10743 10752 10759 10763 10769 10776 10782 10790 10797 10805 10814 10822 10828 10835 10841 10850 10859 10865 10871 10880 10886 10889 10894 10900 10906 10911 10914 10918 10923 10928 10932 10938 10943 10947 10953 10959 10965 10971 10976 10980 10983 10986 10988 10990 10992
10763 10758 10752 10746 10740 10733 10727 10721 10715 10709 10701 10694 10688 10683 10679 10677 10674 10671 10669 10666 10663 10659 10656 10654 10651 10648 10647 10648 10650 10653 10655 10658 10660 10663 10669 10675 10681 10688 10696 10704 10712 10721 10729 10738 10746 10751 10755 10761 10770 10778 10785 10792 10800 10808 10813 10819 10827 10834 10841 10848 10854 10862 10871 10878 10882 10889 10895 10900 10904 10907 10910 10915 10919 10925 10931 10936 10941 10947 10954 10960 10966 10971 10974 10978 10981 10983 10985 10988
10760 10755 10749 10744 10738 10731 10725 10719 10713 10707 10700 10693 10686 10681 10677 10675 10672 10669 10666 10663 10660 10656 10652 10650 10647 10644 10643 10643 10645 10647 10649 10651 10654 10658 10664 10668 10674 10680 10688 10696 10704 10713 10723 10731 10736 10740 10746 10754 10763 10772 10777 10785 10795 10802 10806 10813 10821 10826 10832 10838 10844 10852 10861 10868 10874 10880 10886 10892 10897 10900 10904 10907 10911 10919 10926 10930 10934 10941 10948 10954 10960 10965 10968 10972 10976 10978 10981 10983
10757 10752 10747 10741 10736 10730 10723 10717 10711 10705 10698 10692 10685 10680 10675 10673 10670 10667 10663 10660 10657 10653 10649 10646 10643 10641 10639 10639 10640 10642 10644 10646 10649 10653 10658 10663 10668 10674 10682 10690 10697 10706 10716 10723 10726 10734 10742 10749 10758 10766 10772 10783 10791 10794 10797 10805 10811 10816 10822 10830 10838 10848 10857 10863 10867 10872 10878 10884 10888 10892 10897 10900 10904 10913 10919 10923 10928 10935 10941 10947 10953 10958 10963 10966 10970 10973 10976 10978
10754 10750 10744 10739 10734 10728 10722 10715 10709 10703 10697 10690 10684 10678 10674 10671 10668 10665 10661 10658 10654 10650 10647 10643 10641 10638 10636 10636 10636 10638 10640 10642 10644 10648 10653 10659 10664 10669 10677 10685 10693 10701 10707 10711 10717 10728 10737 10743 10753 10760 10767 10776 10780 10782 10788 10797 10803 10809 10819 10829 10837 10845 10853 10857 10863 10868 10873 10877 10881 10886 10891 10892 10897 10906 10912 10915 10922 10928 10935 10940 10946 10952 10956 10960 10964 10968 10970 10973
10752 10747 10742 10737 10731 10726 10720 10714 10708 10702 10695 10689 10683 10677 10673 10669 10666 10662 10659 10656 10652 10647 10644 10641 10638 10636 10634 10633 10632 10633 10635 10637 10640 10644 10649 10654 10659 10664 10671 10678 10686 10693 10699 10703 10711 10721 10728 10736 10746 10752 10759 10767 10772 10776 10785 10794 10801 10811 10821 10828 10833 10838 10845 10850 10856 10861 10866 10872 10878 10884 10886 10885 10890 10899 10904 10908 10915 10922 10927 10933 10939 10945 10950 10954 10958 10961 10965 10969
10748 10744 10739 10734 10729 10724 10718 10712 10706 10700 10694 10688 10682 10676 10671 10667 10663 10660 10657 10653 10650 10646 10642 10639 10636 10634 10631 10630 10629 10630 10631 10633 10636 10640 10644 10650 10654 10659 10665 10671 10677 10685 10691 10698 10707 10716 10723 10732 10740 10746 10752 10758 10764 10771 10781 10791 10801 10809 10816 10821 10825 10831 10837 10842 10848 10854 10862 10869 10873 10876 10878 10877 10882 10891 10897 10902 10909 10914 10919 10926 10932 10938 10944 10948 10951 10955 10959 10963
10745 10741 10737 10732 10727 10722 10716 10711 10705 10699 10693 10686 10680 10674 10669 10664 10661 10658 10655 10651 10648 10644 10641 10638 10635 10632 10630 10628 10627 10626 10627 10629 10632 10635 10639 10644 10649 10655 10660 10665 10670 10677 10683 10692 10702 10711 10721 10729 10736 10741 10747 10752 10758 10766 10775 10783 10791 10799 10805 10811 10817 10823 10828 10834 10840 10847 10855 10860 10861 10864 10867 10868 10874 10885 10891 10896 10901 10906 10912 10919 10924 10931 10937 10941 10945 10950 10954 10958
10742 10738 10734 10729 10725 10720 10715 10709 10703 10697 10691 10685 10678 10672 10667 10662 10659 10656 10653 10650 10646 10643 10639 10636 10633 10631 10628 10626 10624 10624 10624 10625 10628 10631 10634 10639 10645 10651 10655 10659 10664 10670 10677 10686 10696 10705 10715 10722 10728 10735 10741 10747 10755 10763 10770 10777 10784 10790 10796 10802 10808 10814 10819 10826 10834 10841 10846 10849 10851 10855 10858 10860 10869 10879 10886 10890 10894 10899 10905 10911 10917 10925 10930 10935 10939 10944 10949 10955
10739 10735 10731 10726 10722 10718 10713 10707 10702 10696 10690 10684 10677 10671 10666 10661 10657 10654 10651 10648 10645 10642 10638 10634 10632 10630 10627 10625 10623 10621 10621 10622 10624 10627 10630 10635 10640 10645 10649 10653 10658 10664 10671 10679 10688 10698 10706 10711 10717 10725 10733 10741 10750 10758 10766 10773 10779 10784 10789 10794 10801 10807 10813 10820 10827 10833 10837 10839 10842 10847 10851 10855 10864 10873 10878 10882 10887 10892 10898 10904 10911 10917 10922 10927 10932 10937 10945 10952
10736 10732 10728 10723 10719 10715 10710 10705 10700 10695 10689 10683 10676 10670 10665 10660 10655 10652 10650 10647 10644 10640 10637 10633 10631 10628 10626 10623 10621 10619 10619 10619 10620 10623 10626 10630 10635 10640 10644 10649 10654 10658 10665 10672 10680 10690 10696 10700 10709 10718 10725 10734 10743 10752 10760 10768 10773 10779 10783 10789 10795 10801 10807 10813 10818 10823 10828 10832 10836 10839 10844 10850 10858 10865 10871 10875 10879 10884 10890 10896 10902 10909 10914 10920 10925 10932 10941 10950
10732 10729 10725 10721 10716 10712 10708 10703 10698 10693 10688 10682 10676 10670 10664 10659 10654 10651 10648 10646 10643 10639 10636 10632 10629 10627 10624 10622 10620 10618 10617 10616 10617 10619 10622 10626 10630 10635 10640 10645 10649 10654 10660 10666 10673 10681 10687 10694 10704 10712 10719 10727 10735 10744 10754 10761 10767 10772 10776 10781 10788 10794 10800 10805 10810 10816 10821 10825 10828 10832 10839 10845 10851 10858 10863 10866 10871 10876 10881 10887 10894 10900 10905 10911 10918 10926 10936 10941
10729 10726 10722 10718 10714 10710 10705 10701 10696 10691 10686 10681 10675 10669 10664 10658 10653 10650 10647 10644 10642 10639 10635 10632 10628 10625 10623 10620 10618 10616 10615 10615 10615 10616 10619 10622 10626 10631 10636 10640 10645 10649 10655 10661 10667 10674 10681 10689 10698 10706 10713 10720 10727 10736 10745 10752 10756 10761 10767 10773 10780 10787 10793 10798 10804 10810 10815 10818 10822 10829 10835 10839 10843 10848 10853 10857 10862 10867 10872 10878 10885 10891 10897 10903 10909 10918 10926 10928